563  
ASUS44 KEWX 200510  
RWRTX  
SOUTH TEXAS REGIONAL WEATHER ROUNDUP  
NATIONAL WEATHER SERVICE AUSTIN/SAN ANTONIO TX  
1100 PM CST FRI DEC 19 2014  
 
NOTE: "FAIR" INDICATED FEW OR NO CLOUDS BELOW 12,000 FEET WITH NO  
SIGNIFICANT WEATHER AND/OR S TO VISIBILITY
.  
 
* - THESE STATIONS ARE NOT NWS OR FAA STATIONS...AND ARE NOT SUBJECT  
TO NWS AND FAA QUALITY CONTROL.
 
 
TXZ171-172-183>190-200600-  
TEXAS HILL COUNTRY AND EDWARDS PLATEAU  
 
CITY SKY/WX TMP DP RH WIND PRES REMARKS
 
JUNCTION CLOUDY 44 42 93 E5 30.19R WCI 42  
*LLANO CLOUDY 48 45 87 NE5 30.25R WCI 46  
BURNET CLOUDY 45 43 93 NE7 30.21S WCI 41  
*HORSESHOE BAY CLOUDY 48 43 84 NE3 30.20S  
*KERRVILLE CLOUDY 47 44 89 N5 30.18R WCI 45  
*FREDERICKSBRG CLOUDY 47 43 85 N12 30.18R WCI 42  
*ROCKSPRINGS CLEAR 45 43 93 NE7 30.18R WCI 41  
*BOERNE STAGE CLOUDY 48 43 81 NE8 30.17S WCI 45  
*CASTROVILLE CLEAR 47 44 90 CALM 30.18S  
HONDO CLEAR 46 43 89 NE7 30.18R WCI 42  
*UVALDE CLEAR 40 38 93 E6 30.17R WCI 36  
DEL RIO CLOUDY 56 52 86 NE6 30.15R  
LAUGHLIN AFB PTCLDY 52 48 84 SE2 30.16R  
CARRIZO SPRGS CLEAR 50 46 87 NE3 30.15R  

 
 
TXZ173-191>194-202-209-217>225-228-200600-  
CENTRAL AND SOUTH CENTRAL TEXAS  
 
CITY SKY/WX TMP DP RH WIND PRES REMARKS
 
GEORGETOWN CLOUDY 48 45 87 N8 30.19S WCI 45  
AUSTIN/BERGSTM CLOUDY 50 45 83 N15 30.19S WCI 45  
AUSTIN/MABRY CLOUDY 49 44 83 VRB6 30.20S WCI 46  
*AUSTIN/EXEC CLOUDY 48 45 87 N9 30.20S WCI 44  
*LAGO VISTA DRIZZLE 47 45 93 N9 30.19S WCI 42  
SAN MARCOS CLOUDY 48 45 87 N14 30.18S WCI 43  
NEW BRAUNFELS CLOUDY 51 46 83 NE15 30.17S  
RANDOLPH AFB CLOUDY 51 45 80 N14 30.17S  
PT SAN ANTONIO PTCLDY 51 45 80 NE12 30.14S  
SAN ANTONIO CLOUDY 52 45 77 N10 30.16S  
STINSON FIELD CLOUDY 53 45 74 NE9 30.15S  
*PLEASANTON CLOUDY 53 46 78 NE7 30.17R  
*LA GRANGE CLOUDY 51 48 88 N12G18 30.16S  
*GIDDINGS CLOUDY 49 46 90 N7 30.21S WCI 46  
*GONZALES NOT AVBL  

 
 
TXZ163>164-176>182-195>201-210>213-226-227-235-200600-  
SOUTHEAST TEXAS  
 
CITY SKY/WX TMP DP RH WIND PRES REMARKS
 
COLLEGE STN CLOUDY 49 47 93 N12 30.18R FOG WCI 44  
*BRYAN CLOUDY 48 47 97 N7 30.20R FOG WCI 45  
*CALDWELL CLOUDY 48 48 100 N7 30.22R FOG WCI 45  
*CROCKETT CLOUDY 52 50 93 N6 30.21R  
*BRENHAM CLOUDY 52 50 93 N10 30.17S  
HUNTSVILLE CLOUDY 50 48 93 VRB3 30.16R FOG  
CONROE CLOUDY 51 48 89 N7 30.15R  
HOUSTON BUSH CLOUDY 53 51 93 N13 30.14R  
HOUSTON HOBBY CLOUDY 54 51 90 N15 30.12R  
*HOUSTON SW AP DRIZZLE 46 45 99 N8 30.13S WCI 41  
PEARLAND LGT RAIN 54 52 93 NE10 30.13R  
HOUSTON HOOKS CLOUDY 52 48 87 N6 30.14R  
ELLINGTON FLD CLOUDY 54 52 94 N12 30.13R FOG  
SUGAR LAND CLOUDY 54 52 93 N12 30.13S  
*HOUSTON EXEC CLOUDY 52 50 93 N10 30.16R  
*CLEVELAND MUN CLOUDY 51 50 98 N5 30.15S  
*WHARTON CLOUDY 53 51 94 N13G18 30.14S  
*COLUMBUS CLOUDY 51 49 92 N9 30.15S  

 
 
TXZ214>216-236>238-200600-  
THE UPPER TEXAS COAST  
 
CITY SKY/WX TMP DP RH WIND PRES REMARKS
 
*ORANGE CLOUDY 50 50 99 N10G16 30.13R FOG WCI 46  
PORT ARTHUR CLOUDY 51 49 92 N14 30.10R  
GALVESTON LGT RAIN 53 53 100 N21 30.11R  
ANGLETON CLOUDY 53 53 100 N13 30.11R  
*BAY CITY N/A 55 55 100 N15 30.11S FOG  
PALACIOS CLOUDY 55 54 96 N21 30.12R FOG  

 
 
TXZ229>234-239>247-200600-  
TEXAS COASTAL BEND AND RIO GRANDE PLAINS  
 
CITY SKY/WX TMP DP RH WIND PRES REMARKS
 
VICTORIA CLOUDY 55 50 83 N13 30.14S  
*BEEVILLE CLOUDY 55 50 86 NE12 30.14R  
ROCKPORT CLOUDY 57 53 86 N13 30.12R  
*PORT ARANSAS CLOUDY 57 55 94 N15G22 30.11R  
*PORT LAVACA CLOUDY 54 52 95 N16G22 30.14R  
*INGLESIDE CLOUDY 57 52 82 N14 30.12R  
CORPUS CHRISTI CLOUDY 59 53 80 N12 30.12S  
CORPUS NAS CLOUDY 59 55 87 N20 30.12R  
*ROBSTOWN NOT AVBL  
ALICE CLOUDY 60 53 77 N9 30.12S  
KINGSVILLE NAS CLOUDY 60 56 86 N10 30.13R  
COTULLA CLEAR 53 48 83 NE7 30.15R  
LAREDO NOT AVBL  

 
 
TXZ248>255-200600-  
DEEP SOUTH TEXAS  
 
CITY SKY/WX TMP DP RH WIND PRES REMARKS
 
BROWNSVILLE CLOUDY 61 57 87 N10 30.09F  
PORT ISABEL CLOUDY 62 58 86 N13 30.09R  
*SOUTH PADRE CLOUDY 63 59 88 NE18 30.08F  
HARLINGEN CLOUDY 61 57 87 N8 30.10R  
*HEBBRONVILLE CLOUDY 53 51 94 CALM 30.14R  
MCALLEN CLOUDY 62 56 80 N6 30.13R  
*WESLACO CLOUDY 61 55 81 N7 30.12R  
FALFURRIAS CLOUDY 61 54 77 N7 30.11S  
EDINBURG CLOUDY 63 55 76 N7G16 30.12R  
*ZAPATA CLOUDY 53 53 100 NW6 30.13S FOG  

 
 
TXZ213>215-236>238-242>244-246-247-251-254-255-200600-  
CMAN STATIONS  
 
STATION/POSITION TIME TEMP WIND PRES WAVE
 
AIR SEA DIR/SP/G HT/PER  
(UTC) (F) (DEG/KT/KT) (MB) (FT/S)  
SABINE PASS 0500 53 61 10/ 15/ 18 1019.0  
SEA RIM ST PARK 0500 51 360/ 13/ 15 1019.7  
NORTH JETTY/GLS 0500 52 62 30/ 18/ 20 N/A  
EAGLE POINT 0500 53 61 20/ 10/ 17 1019.8  
MORGANS POINT 0500 52 10/ 12/ 16 1019.9  
MISSION/ARANSAS 0400 58 360/ 16 1021.0  
PORT O'CONNOR 0500 350/ 21/ 25 N/A  
PORT ARANSAS 0500 58 64 360/ 18/ 20 1019.9  
MALAQUITE BEACH 0500 60 67 340/ 15/ 18 1018.8  
BAFFIN BAY 0500 61 360/ 12/ 14 1019.3  
PORT ISABEL 0500 63 69 360/ 10/ 19 1018.5  

 
 
GMZ080-GMZ150>470-200600-  
OFFSHORE BUOY REPORTS  
 
STATION/POSITION TIME TEMP WIND PRES WAVE
 
AIR SEA DIR/SP/G HT/PER  
(UTC) (F) (DEG/KT/KT) (MB) (FT/S)  
20 E GALVESTON 0500 54 64 20/ 17/ 21 1018.2 5/ 6  
90 E PT ARANSAS 0500 61 71 360/ 19/ 23 1017.9 6/ 7  
35 NE PT MANSFLD 0500 63 73 10/ 19/ 23 1018.1 6/ 6  
200 E PT ISABEL 0500 73 73 290/ 6/ 6 1015.8 3/ 6  

 
 
CLICK HERE TO GO TO PREVIOUS BULLETINS.

The Nexlab TX Page Main Text Page